Regional Weather Roundup
Issued by NWS

Home | Current Version | Previous Version | Text Only | Print | Product List | Glossary Off
Versions: 1 2 3 4 5 6 7 8 9 10 11 12 13 14 15 16 17 18 19 20 21 22 23 24 25 26 27 28 29 30 31 32 33 34 35 36 37 38 39 40 41 42 43 44 45 46 47 48 49 50

000
ASUS43 KLOT 210300
RWRIL

ILLINOIS REGIONAL WEATHER ROUNDUP
NATIONAL WEATHER SERVICE CHICAGO/ROMEOVILLE IL
1000 PM CDT WED AUG 20 2014

NOTE: "FAIR" INDICATES FEW OR NO CLOUDS BELOW 12,000 FEET WITH NO
SIGNIFICANT WEATHER AND/OR OBSTRUCTIONS TO VISIBILITY.

* THESE STATIONS ARE NOT UNDER NWS QUALITY CONTROL. THEY ALSO MAY NOT
  REPORT WEATHER SUCH AS PRECIPITATION OR FOG.

ILZ001-002-007-009-015-016-024-210400-
NORTHWEST ILLINOIS

CITY           SKY/WX    TMP DP  RH WIND       PRES   REMARKS
MOLINE         PTCLDY    70  68  93 SE7       29.91R
STERLING*      CLOUDY    70  66  88 CALM      29.94R
$$

ILZ003-004-008-010-011-017-018-210400-
NORTH CENTRAL ILLINOIS

CITY           SKY/WX    TMP DP  RH WIND       PRES   REMARKS
ROCKFORD       MOCLDY    73  68  84 S5        29.95R
ROCHELLE*      CLOUDY    69  66  90 CALM      29.94R
$$

ILZ005-006-012>014-019>023-210400-
NORTHEAST ILLINOIS

CITY           SKY/WX    TMP DP  RH WIND       PRES   REMARKS
CHICAGO-OHARE  MOCLDY    76  67  73 W7        29.93R
CHICAGO-MIDWAY MOCLDY    78  70  76 W7        29.93R HX  80
AURORA         PTCLDY    71  66  84 SW6       29.94S
WAUKEGAN       MOCLDY    71  68  90 NE3       29.92R
DUPAGE AIRPORT PTCLDY    73  68  84 CALM      29.92F
WHEELING       PTCLDY    78  69  73 W7        29.94R HX  80
NORTHERLY ISL    N/A     78  69  73 SW8         N/A  HX  80
$$

LMZ740>746-210400-
SOUTHERN LAKE MICHIGAN

STATION/POSITION SKY/WX   TEMP    WIND        PRES    VSBY  WAVE
                          AIR SEA DIR/SP/G                  HT/PER
                          (F)     (DEG/KT/KT) (MB)    (MI)  (FT/S)
SOUTHERN BUOY              69 68   70/  8/ 10 1012.6R         0
WAUKEGAN HARBOR            71      30/  4/  5   N/A
HARRISON CRIB              80     240/ 14/ 16   N/A
BURNHAM HARBOR             78     270/ 10       N/A
CALUMET HARBOR             77     230/ 10/ 13 1012.6R
BURNS HARBOR               79     200/  6/  8   N/A
MICHIGAN CITY              78     170/  9/ 11   N/A
MICHIGAN CITY 6N           75 72  220/ 10/ 14   N/A           1
ST. JOSEPH                 75 71  170/  6/  6   N/A           1
$$

ILZ025>027-034>036-040-047-049-050-058-095>099-210400-
WEST-CENTRAL ILLINOIS

CITY           SKY/WX    TMP DP  RH WIND       PRES   REMARKS
QUINCY         CLEAR     78  75  90 S9        29.91S HX  81
MACOMB*        CLEAR     74  73  98 S6        29.94S FOG
$$

ILZ028>032-037-038-041>044-048-051>054-059>061-210400-
CENTRAL ILLINOIS

CITY           SKY/WX    TMP DP  RH WIND       PRES   REMARKS
DECATUR        CLEAR     74  70  87 S10       29.98R
PEORIA         CLEAR     76  71  85 S5        29.94R
SPRINGFIELD    CLEAR     75  70  84 S5        29.95S
TAYLORVILLE    NOT AVBL
$$

ILZ033-039-045-046-055>057-062-063-210400-
EAST-CENTRAL ILLINOIS

CITY           SKY/WX    TMP DP  RH WIND       PRES   REMARKS
CHAMPAIGN      PTCLDY    73  70  90 S10       29.99R
MATTOON        CLEAR     74  69  85 S9        29.99R
$$

ILZ079-100>102-210400-
SOUTHWEST ILLINOIS

CITY           SKY/WX    TMP DP  RH WIND       PRES   REMARKS
ALTON          MOCLDY    72  72 100 SE12      30.00F
BELLEVILLE     TSTM      75  74  98 CALM      29.99F
CAHOKIA*       TSTM      76  73  91 VRB5      29.97F
$$

ILZ064>066-069>071-074>076-080>082-084>086-088>090-092>094-210400-
SOUTH-CENTRAL ILLINOIS

CITY           SKY/WX    TMP DP  RH WIND       PRES   REMARKS
CARBONDALE     MOCLDY    78  75  90 SE7       30.00R HX  81
MT. VERNON     PTCLDY    77  68  73 S3        30.02R
SALEM*         MOCLDY    78  72  80 S5        30.01R HX  81
$$

ILZ067-068-072-073-078-083-087-091-210400-
SOUTHEAST ILLINOIS

CITY           SKY/WX    TMP DP  RH WIND       PRES   REMARKS
LAWRENCEVILLE  CLEAR     72  70  93 S6        30.02R
HARRISBURG*    PTCLDY    79  75  89 SE5       30.03R HX  83
ROBINSON*      CLEAR     71  70  97 S5        30.01F
$$

ABBREVIATIONS USED IN REMARKS
   TC - TEMPERATURE IN CELSIUS
  WCI - WIND CHILL INDEX
   HX - HEAT INDEX
  VSB - VISIBILITY
$$




USA.gov is the U.S. government's official web portal to all federal, state and local government web resources and services.